Location: Artiguedieu
(43.5000°N, 0.5454°E)
Time: 12:35:48
(UTC+00:00)

Cosmos 1689 Rocket - Pass Details

Date: 06 December 2020
Orbit: 355 x 369 km, 97.5° (Epoch: 27 January)

Event Time Altitude Azimuth Distance (km) Brightness Sun altitude
Rises 05:36:14 0° 176° (S) 2,175 6.1 -17.5°
Reaches altitude 10° 05:38:10 10° 181° (S) 1,338 5.0 -17.2°
Enters shadow 05:40:53 51° 254° (WSW) 464 2.1 -16.7°
